DELTA 1 DEB, 29186

Orbit data source: Space-Track

DELTA 1 DEB, 29186 is space debris in LEO originally from a launch on Thu, 11 Jan 1968 UTC launched from the Air Force Western Test Range (AFWTR). Debris objects in space refer to the collection of defunct objects orbiting the Earth. Examples of debris include non-operational satellites, rocket bodies, and fragments generated from explosions, collisions, or faulty payload assembly.

Loading next visibility...
Identifier
29186, 1968-002K
Orbit
LEO
Last TLE update
4 days ago
Origin
Manufacturer
Unknown
Mission
Spacecraft
Bus & Motor
Unknown
Mass
Unknown
Launch date (UTC)
1968-01-11 (57 years ago)
Launch vehicle
Unknown
Launch site
Air Force Western Test Range (AFWTR)
Object type
Payload
Rocket body
Debris
Shape & HBR
Unknown
Radar Cross Section
Small (<0.1 m²)

Expand to show TLE details & history

TLE from 4 days ago
0 DELTA 1 DEB
1 29186U 68002K   25124.84426008  .00000135  00000-0  62813-3 0  9990
2 29186 105.8088 129.0702 0307953 112.8323   8.8984 12.92859687965718
Epoch: 2025-05-04T20:15Z
Definitive object data (Epoch: 2025-05-04T20:15:44.07Z)
Latitude
54.52514°
Longitude
165.45214°
Altitude
1,065.648 km
Speed
7.435 km/s
True Right ascension
22h 09m 24s
True Declination
54° 22' 09"
Sunlit
Object was in daylight at TLE epoch
Visualization TLE readout
Latitude
17.38846°
Longitude
153.53001°
Altitude
1,156.22 km
Speed
7.341 km/s
Apparent Right ascension
23h 20m 28s
Apparent Declination
-10° 47' 19"
Sunlit
Object is in daylight
Visualization observer readout
Local Sidereal Time
14:27:02
Azimuth
67.959° E
Elevation
-39.595°
Doppler factor
1
Orbital elements
Apogee altitude
1,524.045 km
Perigee altitude
1,051.885 km
Semi-major axis
7,666.102 km
Eccentricity
0.0307953
Inclination
105.8088°
RAAN
129.0702°
Arg. of periapsis
112.8323°
True anomaly
9.46579°
Mean anomaly
8.8984°
Eccentric anomaly
9.17989°
Mean motion
3.23356 °/min
BSTAR
0.00062813
Orbital period
111.33 mins
Loading maneuver chart data...
Loading SW <> Apogee altitude chart data...
Loading historical data...
Loading historical data...
Loading historical data...
Loading historical data...
Loading historical data...
Loading historical data...
Loading historical data...

DELTA 1 DEB Visibility forecast

Observer location: undefined°, undefined°

Span
Click to sort rows by Start time (UTC) header in descending order
Start Az.
Max El. time (UTC)
Max El. Az.
Max El.
End time (UTC)
End Az.
11 mins2025-05-09 13:32:13.883Z27.518° NE2025-05-09 13:37:13.883Z123.377° SE44.216°2025-05-09 13:43:13.883Z197.889° SSW
7 mins2025-05-09 15:22:13.883Z345.187° N2025-05-09 15:25:13.883Z312.552° NW19.124°2025-05-09 15:29:13.883Z270.474° WNW
9 mins2025-05-09 22:24:13.883Z94.456° ESE2025-05-09 22:28:13.883Z53.247° ENE22.105°2025-05-09 22:33:13.883Z2.804° NNE
12 mins2025-05-10 00:11:13.883Z167.455° S2025-05-10 00:16:13.883Z220.179° SW42.824°2025-05-10 00:23:13.883Z332.386° NNW
|